(169228) = 2001 SD14

Discovered at Socorro on 2001-09-16 by LINEAR.

Orbit

Orbit type: Main Belt

Note: WebGL enabled browser required.

epoch2023-09-13.0
epoch JD2460200.5
perihelion date2018-11-27.00853
perihelion JD2458449.50853
argument of perihelion (°)22.51435
ascending node (°)9.86059
inclination (°)4.25784
eccentricity0.0903935
perihelion distance (AU)2.8545915
Tisserand w.r.t. Jupiter3.2
ΔV w.r.t. Earth (km/sec)10.6
semimajor axis (AU)3.1382709
mean anomaly (°)310.42181
mean daily motion (°/day)0.17728350
aphelion distance (AU)3.422
period (years)5.56
P-vector [x]0.84474319
P-vector [y]0.47900870
P-vector [z]0.23866214
Q-vector [x]-0.53502083
Q-vector [y]0.74528394
Q-vector [z]0.39787506
absolute magnitude15.35
phase slope0.15
uncertainty0
referenceMPO 778082
observations used591
oppositions15
arc length (days)8110
first opposition used2001
last opposition used2023
residual rms (arc-secs)0.75
perturbers coarse indicatorM-v
perturbers precise indicator003Ek
first observation date used2001-08-27.0
last observation date used2023-11-10.0
computer nameMPCLINUX
JD of orbit computation2456671.022054
perihelion JD uncertainty (days)1.7969E-04
argument of perihelion uncertainty (°)6.7586E-05
ascending node uncertainty (°)5.9113E-05
inclination uncertainty (°)6.3084E-06
eccentricity uncertainty 5.3477E-08
perihelion distance uncertainty (AU)1.6964E-07
Minimum Orbit Intersection Distances (in AU)
for orbit epoch: 2460200.5, reference: E2023-VJ5
Mercury2.52334
Venus2.13276
Earth1.85989
Mars1.38575
Jupiter2.0025
Saturn6.01545
Uranus15.0981
Neptune26.9851

Observations

603 total observations over interval: 2001 08 27.33737 – 2023 11 10.136311
These data are available for download (format description).

Date (UT) J2000 RA J2000 Dec Magn Location Ref
2001 08 27.33737 00 15 35.99 -00 13 46.4 19.6 R 699 – Lowell Observatory-LONEOS MPS 38095
2001 08 27.35696 00 15 35.33 -00 13 50.3   699 – Lowell Observatory-LONEOS MPS 38095
2001 08 27.37656 00 15 34.73 -00 13 53.5   699 – Lowell Observatory-LONEOS MPS 38095
2001 08 27.39618 00 15 34.09 -00 13 56.1   699 – Lowell Observatory-LONEOS MPS 38095
2001 09 16.31467 00 02 26.08 -01 15 26.5 19.1   704 – Lincoln Laboratory ETS, New Mexico MPS 36484
2001 09 16.33155 00 02 25.27 -01 15 30.5 19.5   704 – Lincoln Laboratory ETS, New Mexico MPS 36484
2001 09 16.34782 00 02 24.54 -01 15 33.3 19.6   704 – Lincoln Laboratory ETS, New Mexico MPS 36484
2001 09 19.25605 00 00 10.64 -01 25 58.9 18.8   704 – Lincoln Laboratory ETS, New Mexico MPS 36484
2001 09 19.25706 00 00 10.57 -01 25 59.2 19.1   704 – Lincoln Laboratory ETS, New Mexico MPS 36484
2001 09 19.27019 00 00 10.00 -01 26 01.7 19.3   704 – Lincoln Laboratory ETS, New Mexico MPS 36484
2001 09 19.27120 00 00 09.93 -01 26 02.8 19.7   704 – Lincoln Laboratory ETS, New Mexico MPS 36484
2001 09 19.28446 00 00 09.32 -01 26 04.8 19.4   704 – Lincoln Laboratory ETS, New Mexico MPS 36484
2001 09 19.28547 00 00 09.25 -01 26 05.3 19.3   704 – Lincoln Laboratory ETS, New Mexico MPS 36484
2001 09 19.29859 00 00 08.62 -01 26 08.4 19.4   704 – Lincoln Laboratory ETS, New Mexico MPS 36484
2001 09 19.29960 00 00 08.54 -01 26 08.2 19.4   704 – Lincoln Laboratory ETS, New Mexico MPS 36484
2001 09 19.31273 00 00 07.97 -01 26 12.0 19.1   704 – Lincoln Laboratory ETS, New Mexico MPS 36484
2001 09 19.31373 00 00 07.90 -01 26 11.8 19.4   704 – Lincoln Laboratory ETS, New Mexico MPS 36484
2001 09 21.25577 23 58 37.61 -01 33 09.7 18.5   704 – Lincoln Laboratory ETS, New Mexico MPS 36484
2001 09 21.26991 23 58 36.91 -01 33 12.3 19.0   704 – Lincoln Laboratory ETS, New Mexico MPS 36484
2001 09 21.28405 23 58 36.22 -01 33 15.5 18.8   704 – Lincoln Laboratory ETS, New Mexico MPS 36484
2001 09 21.29820 23 58 35.57 -01 33 19.1 18.5   704 – Lincoln Laboratory ETS, New Mexico MPS 36484
2001 09 21.31235 23 58 34.85 -01 33 22.3 18.6   704 – Lincoln Laboratory ETS, New Mexico MPS 36484
2001 09 23.21094 23 57 06.53 -01 40 09.4 19.5 V 691 – Steward Observatory, Kitt Peak-Spacewatch MPS 36484
2001 09 23.25942 23 57 04.20 -01 40 20.7 19.5 V 691 – Steward Observatory, Kitt Peak-Spacewatch MPS 36484
2001 09 23.29529 23 57 02.46 -01 40 27.5 19.4 V 691 – Steward Observatory, Kitt Peak-Spacewatch MPS 36484
2001 09 25.29732 23 55 29.45 -01 47 32.6 19.2   644 – Palomar Mountain/NEAT MPS 49442
2001 09 25.31795 23 55 28.47 -01 47 37.0 19.3   644 – Palomar Mountain/NEAT MPS 49442
2001 09 25.33912 23 55 27.46 -01 47 40.8 20.0   644 – Palomar Mountain/NEAT MPS 49442
2001 09 26.32775 23 54 41.60 -01 51 09.3 19.5   704 – Lincoln Laboratory ETS, New Mexico MPS 49442
2001 09 26.34277 23 54 40.84 -01 51 12.5 19.9   704 – Lincoln Laboratory ETS, New Mexico MPS 49442
2001 09 26.35737 23 54 40.23 -01 51 14.6 19.8   704 – Lincoln Laboratory ETS, New Mexico MPS 49442
2001 09 26.37195 23 54 39.53 -01 51 16.9 20.1   704 – Lincoln Laboratory ETS, New Mexico MPS 49442
2001 10 15.15869 23 41 41.81 -02 45 47.3 19.4   704 – Lincoln Laboratory ETS, New Mexico MPS 38095
2001 10 15.17454 23 41 41.21 -02 45 49.5 20.3   704 – Lincoln Laboratory ETS, New Mexico MPS 38095
2001 10 15.19037 23 41 40.69 -02 45 51.8 20.0   704 – Lincoln Laboratory ETS, New Mexico MPS 38095
2001 10 15.22202 23 41 39.70 -02 45 57.2 20.5   704 – Lincoln Laboratory ETS, New Mexico MPS 38095
2001 10 17.16609 23 40 35.57 -02 49 44.5 19.6   644 – Palomar Mountain/NEAT MPS 40449
2001 10 17.18702 23 40 34.87 -02 49 47.0 19.6   644 – Palomar Mountain/NEAT MPS 40449
2001 10 17.20796 23 40 34.19 -02 49 49.3 19.6   644 – Palomar Mountain/NEAT MPS 40449
2001 10 17.36966 23 40 28.82 -02 50 07.3 19.6   644 – Palomar Mountain/NEAT MPS 40449
2001 10 17.39077 23 40 28.10 -02 50 09.5 20.1   644 – Palomar Mountain/NEAT MPS 40449
2001 10 17.41322 23 40 27.40 -02 50 12.7 21.0   644 – Palomar Mountain/NEAT MPS 40449
2001 10 20.17707 23 39 04.27 -02 54 52.8 18.7   704 – Lincoln Laboratory ETS, New Mexico MPS 40449
2001 10 20.19368 23 39 03.74 -02 54 54.6 19.2   704 – Lincoln Laboratory ETS, New Mexico MPS 40449
2001 10 20.21334 23 39 03.14 -02 54 54.8 19.5   704 – Lincoln Laboratory ETS, New Mexico MPS 40449
2001 10 20.22998 23 39 02.68 -02 54 57.8 19.4   704 – Lincoln Laboratory ETS, New Mexico MPS 40449
2001 10 20.24918 23 39 02.10 -02 54 58.8 19.5   704 – Lincoln Laboratory ETS, New Mexico MPS 40449
2001 10 24.15813 23 37 20.12 -02 59 56.2 19.3   704 – Lincoln Laboratory ETS, New Mexico MPS 40449
2001 10 24.17467 23 37 19.71 -02 59 57.2 19.6   704 – Lincoln Laboratory ETS, New Mexico MPS 40449
2001 10 24.19122 23 37 19.29 -02 59 58.7 19.5   704 – Lincoln Laboratory ETS, New Mexico MPS 40449
2001 10 24.20776 23 37 18.85 -02 59 59.1 19.4   704 – Lincoln Laboratory ETS, New Mexico MPS 40449
2001 10 24.22434 23 37 18.43 -03 00 00.9 19.6   704 – Lincoln Laboratory ETS, New Mexico MPS 40449
2002 12 10.21960 06 21 21.75 +29 28 04.9 20.1   644 – Palomar Mountain/NEAT MPS 67896
2002 12 10.22665 06 21 21.38 +29 28 05.5 20.2   644 – Palomar Mountain/NEAT MPS 67896
2002 12 10.23373 06 21 21.01 +29 28 06.0 20.2   644 – Palomar Mountain/NEAT MPS 67896
2002 12 14.30559 06 17 43.84 +29 32 59.4 19.4   704 – Lincoln Laboratory ETS, New Mexico MPS 67896
2002 12 14.32003 06 17 42.91 +29 33 00.6 19.7   704 – Lincoln Laboratory ETS, New Mexico MPS 67896
2002 12 14.33439 06 17 42.15 +29 32 59.8 19.6   704 – Lincoln Laboratory ETS, New Mexico MPS 67896
2002 12 14.34889 06 17 41.32 +29 33 01.8 19.6   704 – Lincoln Laboratory ETS, New Mexico MPS 67896
2004 02 23.36353 11 32 07.61 +05 39 23.8 20.5   704 – Lincoln Laboratory ETS, New Mexico MPS 100015
2004 02 23.37581 11 32 07.09 +05 39 24.5 20.3   704 – Lincoln Laboratory ETS, New Mexico MPS 100015
2004 02 23.39395 11 32 06.35 +05 39 28.0 19.8   704 – Lincoln Laboratory ETS, New Mexico MPS 100015
2004 03 14.28937 11 17 13.85 +06 56 15.3 20.1 V 691 – Steward Observatory, Kitt Peak-Spacewatch MPS 101143
2004 03 14.38759 11 17 09.22 +06 56 37.0 20.9 V 691 – Steward Observatory, Kitt Peak-Spacewatch MPS 101143
2004 03 14.41428 11 17 07.98 +06 56 43.1 20.5 V 691 – Steward Observatory, Kitt Peak-Spacewatch MPS 101143
2004 03 21.24992 11 12 03.43 +07 20 47.5 20.5 V 691 – Steward Observatory, Kitt Peak-Spacewatch MPS 102117
2004 03 21.27831 11 12 02.17 +07 20 53.0 20.7 V 691 – Steward Observatory, Kitt Peak-Spacewatch MPS 102117
2004 03 21.33951 11 11 59.44 +07 21 05.2 19.9 V 691 – Steward Observatory, Kitt Peak-Spacewatch MPS 102117
2007 10 05.32692 02 39 36.38 +18 01 42.3   691 – Steward Observatory, Kitt Peak-Spacewatch MPS 218483
2007 10 05.34454 02 39 35.78 +18 01 41.8   691 – Steward Observatory, Kitt Peak-Spacewatch MPS 218483
2007 10 05.36217 02 39 35.16 +18 01 41.2   691 – Steward Observatory, Kitt Peak-Spacewatch MPS 218483
2007 10 09.30642 02 37 14.57 +17 58 03.6 19.5   704 – Lincoln Laboratory ETS, New Mexico MPS 218483
2007 10 09.31750 02 37 14.10 +17 58 01.5 19.6   704 – Lincoln Laboratory ETS, New Mexico MPS 218483
2007 10 09.33963 02 37 13.34 +17 58 00.1 20.1   704 – Lincoln Laboratory ETS, New Mexico MPS 218483
2007 10 09.35068 02 37 12.86 +17 58 00.4 19.8   704 – Lincoln Laboratory ETS, New Mexico MPS 218483
2007 10 12.25940 02 35 18.01 +17 54 16.7 18.8   704 – Lincoln Laboratory ETS, New Mexico MPS 220245
2007 10 12.27062 02 35 17.58 +17 54 15.6 19.6   704 – Lincoln Laboratory ETS, New Mexico MPS 220245
2007 10 12.28183 02 35 17.04 +17 54 14.7 19.5   704 – Lincoln Laboratory ETS, New Mexico MPS 220245
2007 10 12.29316 02 35 16.54 +17 54 13.8 19.6   704 – Lincoln Laboratory ETS, New Mexico MPS 220245
2007 10 12.30438 02 35 16.12 +17 54 12.8 19.5   704 – Lincoln Laboratory ETS, New Mexico MPS 220245
2007 10 15.25921 02 33 10.61 +17 49 32.5 19.7 C 704 – Lincoln Laboratory ETS, New Mexico MPS 288553
2007 10 15.28170 02 33 09.73 +17 49 30.8 19.6 C 704 – Lincoln Laboratory ETS, New Mexico MPS 288553
2007 10 15.29295 02 33 09.07 +17 49 30.9 19.2 C 704 – Lincoln Laboratory ETS, New Mexico MPS 288553
2007 10 15.30424 02 33 08.56 +17 49 29.6 19.2 C 704 – Lincoln Laboratory ETS, New Mexico MPS 288553
